Location: Lac Lasalle
(46.0398°N, 74.1576°W)
Time: 10:31:59
(UTC-05:00)

AO-73 - Pass Details

Date: 11 December 2019
Orbit: 581 x 664 km, 97.6° (Epoch: 17 January)

Event Time Altitude Azimuth Distance (km) Brightness Sun altitude
Rises 06:28:50 0° 12° (NNE) 2,868 ? -9.9°
Reaches altitude 10° 06:31:02 10° 12° (NNE) 1,948 ? -9.6°
Maximum altitude 06:35:16 86° 285° (WNW) 598 ? -8.9°
Drops below altitude 10° 06:39:23 10° 196° (SSW) 1,900 ? -8.3°
Sets 06:41:31 0° 196° (SSW) 2,791 ? -7.9°
